• Em Portugal
  • Lista de países
  • Para 7 dias
  • Temperatura da água
  • Mapas de satélite
  • Mapa do tempo
  • Widgets de tempo
  • user-avatar
    Iniciar Sessão

    Previsão horária em Curitiba

    Hoje, 25 Fevereiro, Domingo

    Tempo Temperatura Precipitação Vento Pressão Humidade
    00:00 +16°C° 0 mm 1 m/s 683 mmHg 98%
    01:00 +16°C° 0 mm 1 m/s 683 mmHg 98%
    02:00 +14°C° 0 mm 0 m/s 682 mmHg 98%
    03:00 +14°C° 0 mm 0 m/s 682 mmHg 98%
    04:00 +14°C° 0 mm 0 m/s 682 mmHg 97%
    05:00 +14°C° 0 mm 0 m/s 682 mmHg 97%
    06:00 +14°C° 0 mm 0 m/s 682 mmHg 97%
    07:00 +16°C° 0 mm 0 m/s 683 mmHg 88%
    08:00 +18°C° 0 mm 0 m/s 683 mmHg 79%
    09:00 +22°C° 0 mm 1 m/s 684 mmHg 70%
    10:00 +24°C° 0 mm 1 m/s 684 mmHg 63%
    11:00 +26°C° 0 mm 1 m/s 684 mmHg 55%
    12:00 +27°C° 0 mm 1 m/s 685 mmHg 47%
    13:00 +27°C° 0,1 mm 1 m/s 684 mmHg 48%
    14:00 +27°C° 0,1 mm 1 m/s 684 mmHg 50%
    15:00 +27°C° 0,1 mm 2 m/s 683 mmHg 51%
    16:00 +26°C° 0,1 mm 2 m/s 683 mmHg 58%
    17:00 +25°C° 0,1 mm 2 m/s 682 mmHg 66%
    18:00 +23°C° 0,1 mm 2 m/s 682 mmHg 74%
    19:00 +21°C° 0 mm 2 m/s 682 mmHg 81%
    20:00 +20°C° 0 mm 1 m/s 682 mmHg 88%
    21:00 +19°C° 0 mm 1 m/s 682 mmHg 95%
    22:00 +19°C° 0 mm 1 m/s 682 mmHg 96%
    23:00 +18°C° 0 mm 1 m/s 683 mmHg 97%

    Amanhã, 26 Fevereiro, Segunda-feira

    Tempo Temperatura Precipitação Vento Pressão Humidade
    00:00 +18°C° 0 mm 1 m/s 683 mmHg 98%
    01:00 +16°C° 0 mm 1 m/s 682 mmHg 98%
    02:00 +15°C° 0 mm 0 m/s 682 mmHg 98%
    03:00 +15°C° 0 mm 0 m/s 681 mmHg 98%
    04:00 +14°C° 0 mm 0 m/s 681 mmHg 98%
    05:00 +14°C° 0 mm 0 m/s 681 mmHg 98%
    06:00 +14°C° 0 mm 0 m/s 681 mmHg 97%
    07:00 +16°C° 0 mm 0 m/s 682 mmHg 89%
    08:00 +18°C° 0 mm 0 m/s 683 mmHg 80%
    09:00 +20°C° 0 mm 0 m/s 683 mmHg 71%
    10:00 +23°C° 0 mm 0 m/s 683 mmHg 61%
    11:00 +27°C° 0 mm 1 m/s 684 mmHg 51%
    12:00 +29°C° 0 mm 1 m/s 684 mmHg 41%
    13:00 +30°C° 0 mm 1 m/s 683 mmHg 41%
    14:00 +30°C° 0 mm 1 m/s 682 mmHg 40%
    15:00 +30°C° 0 mm 1 m/s 681 mmHg 40%
    16:00 +28°C° 0,1 mm 1 m/s 681 mmHg 49%
    17:00 +27°C° 0,1 mm 1 m/s 681 mmHg 59%
    18:00 +25°C° 0,1 mm 1 m/s 680 mmHg 69%
    19:00 +23°C° 0,1 mm 1 m/s 681 mmHg 77%
    20:00 +22°C° 0,1 mm 1 m/s 681 mmHg 85%
    21:00 +20°C° 0,1 mm 1 m/s 681 mmHg 93%
    22:00 +20°C° 0,1 mm 1 m/s 681 mmHg 95%
    23:00 +20°C° 0,1 mm 1 m/s 681 mmHg 96%

    Depois de amanhã, 27 Fevereiro, Terça-feira

    Tempo Temperatura Precipitação Vento Pressão Humidade
    00:00 +19°C° 0,1 mm 1 m/s 681 mmHg 98%
    01:00 +17°C° 0 mm 0 m/s 681 mmHg 98%
    02:00 +17°C° 0 mm 0 m/s 680 mmHg 97%
    03:00 +17°C° 0 mm 0 m/s 680 mmHg 97%
    04:00 +17°C° 0 mm 0 m/s 680 mmHg 97%
    05:00 +17°C° 0 mm 0 m/s 680 mmHg 97%
    06:00 +17°C° 0 mm 0 m/s 680 mmHg 97%
    07:00 +18°C° 0 mm 0 m/s 681 mmHg 89%
    08:00 +20°C° 0 mm 0 m/s 682 mmHg 80%
    09:00 +22°C° 0 mm 0 m/s 682 mmHg 72%
    10:00 +24°C° 0 mm 0 m/s 682 mmHg 65%
    11:00 +28°C° 0 mm 1 m/s 682 mmHg 57%
    12:00 +30°C° 0 mm 1 m/s 682 mmHg 50%
    13:00 +29°C° 0,2 mm 1 m/s 682 mmHg 53%
    14:00 +29°C° 0,2 mm 1 m/s 681 mmHg 55%
    15:00 +29°C° 0,2 mm 1 m/s 680 mmHg 58%
    16:00 +27°C° 0,3 mm 1 m/s 680 mmHg 65%
    17:00 +26°C° 0,3 mm 1 m/s 680 mmHg 73%
    18:00 +25°C° 0,3 mm 1 m/s 680 mmHg 81%
    19:00 +23°C° 0,5 mm 1 m/s 680 mmHg 86%
    20:00 +22°C° 0,5 mm 1 m/s 680 mmHg 91%
    21:00 +21°C° 0,5 mm 1 m/s 680 mmHg 97%
    22:00 +21°C° 0,2 mm 1 m/s 680 mmHg 97%
    23:00 +21°C° 0,2 mm 1 m/s 680 mmHg 98%

    28 Fevereiro, Quarta-feira

    Tempo Temperatura Precipitação Vento Pressão Humidade
    00:00 +18°C° 0,2 mm 0 m/s 680 mmHg 98%
    01:00 +18°C° 0 mm 0 m/s 680 mmHg 98%
    02:00 +18°C° 0 mm 0 m/s 679 mmHg 98%
    03:00 +18°C° 0 mm 0 m/s 679 mmHg 98%
    04:00 +18°C° 0 mm 0 m/s 679 mmHg 98%
    05:00 +18°C° 0 mm 0 m/s 679 mmHg 98%
    06:00 +18°C° 0 mm 0 m/s 679 mmHg 98%
    07:00 +19°C° 0 mm 0 m/s 680 mmHg 93%
    08:00 +20°C° 0 mm 0 m/s 680 mmHg 88%
    09:00 +22°C° 0 mm 0 m/s 681 mmHg 83%
    10:00 +23°C° 0,3 mm 0 m/s 681 mmHg 78%
    11:00 +26°C° 0,3 mm 1 m/s 681 mmHg 73%
    12:00 +28°C° 0,3 mm 1 m/s 681 mmHg 69%
    13:00 +27°C° 1,9 mm 1 m/s 681 mmHg 75%
    14:00 +24°C° 1,9 mm 0 m/s 680 mmHg 81%
    15:00 +24°C° 1,9 mm 0 m/s 679 mmHg 88%
    16:00 +23°C° 2,3 mm 0 m/s 679 mmHg 90%
    17:00 +22°C° 2,3 mm 0 m/s 679 mmHg 93%
    18:00 +23°C° 2,3 mm 1 m/s 679 mmHg 95%
    19:00 +22°C° 2,6 mm 1 m/s 680 mmHg 96%
    20:00 +22°C° 2,6 mm 1 m/s 680 mmHg 96%
    21:00 +21°C° 2,6 mm 1 m/s 681 mmHg 96%
    22:00 +21°C° 1,9 mm 1 m/s 681 mmHg 97%
    23:00 +21°C° 1,9 mm 1 m/s 681 mmHg 97%

    1 Março, Quinta-feira

    Tempo Temperatura Precipitação Vento Pressão Humidade
    00:00 +21°C° 1,9 mm 1 m/s 681 mmHg 98%
    01:00 +21°C° 0,4 mm 1 m/s 681 mmHg 98%
    02:00 +21°C° 0,4 mm 1 m/s 680 mmHg 98%
    03:00 +20°C° 0,4 mm 1 m/s 680 mmHg 99%
    04:00 +18°C° 0,1 mm 0 m/s 680 mmHg 99%
    05:00 +18°C° 0,1 mm 0 m/s 680 mmHg 99%
    06:00 +18°C° 0,1 mm 0 m/s 680 mmHg 99%
    07:00 +19°C° 0,1 mm 0 m/s 681 mmHg 96%
    08:00 +20°C° 0,1 mm 0 m/s 682 mmHg 94%
    09:00 +23°C° 0,1 mm 1 m/s 682 mmHg 91%
    10:00 +24°C° 0,7 mm 1 m/s 682 mmHg 88%
    11:00 +26°C° 0,7 mm 1 m/s 682 mmHg 84%
    12:00 +27°C° 0,7 mm 1 m/s 682 mmHg 81%
    13:00 +27°C° 1,6 mm 1 m/s 682 mmHg 82%
    14:00 +27°C° 1,6 mm 1 m/s 682 mmHg 83%
    15:00 +27°C° 1,6 mm 1 m/s 681 mmHg 85%
    16:00 +26°C° 1,7 mm 1 m/s 681 mmHg 88%
    17:00 +24°C° 1,7 mm 1 m/s 681 mmHg 92%
    18:00 +23°C° 1,7 mm 1 m/s 681 mmHg 96%
    19:00 +23°C° 1,4 mm 1 m/s 681 mmHg 97%
    20:00 +22°C° 1,4 mm 1 m/s 681 mmHg 97%
    21:00 +21°C° 1,4 mm 1 m/s 681 mmHg 98%
    22:00 +21°C° 1 mm 1 m/s 682 mmHg 98%
    23:00 +21°C° 1 mm 1 m/s 682 mmHg 98%

    2 Março, Sexta-feira

    Tempo Temperatura Precipitação Vento Pressão Humidade
    00:00 +21°C° 1 mm 1 m/s 682 mmHg 99%
    01:00 +19°C° 0,3 mm 0 m/s 681 mmHg 99%
    02:00 +18°C° 0,3 mm 0 m/s 681 mmHg 99%
    03:00 +18°C° 0,3 mm 0 m/s 681 mmHg 99%
    04:00 +18°C° 0,1 mm 0 m/s 681 mmHg 99%
    05:00 +18°C° 0,1 mm 0 m/s 681 mmHg 99%
    06:00 +18°C° 0,1 mm 0 m/s 681 mmHg 99%
    07:00 +19°C° 0,1 mm 0 m/s 681 mmHg 96%
    08:00 +20°C° 0,1 mm 0 m/s 682 mmHg 94%
    09:00 +21°C° 0,1 mm 0 m/s 682 mmHg 92%
    10:00 +22°C° 1 mm 0 m/s 682 mmHg 90%
    11:00 +25°C° 1 mm 1 m/s 682 mmHg 88%
    12:00 +26°C° 1 mm 1 m/s 682 mmHg 86%
    13:00 +26°C° 1,9 mm 1 m/s 681 mmHg 87%
    14:00 +26°C° 1,9 mm 1 m/s 681 mmHg 88%
    15:00 +27°C° 1,9 mm 1 m/s 680 mmHg 89%
    16:00 +26°C° 1,8 mm 1 m/s 680 mmHg 91%
    17:00 +25°C° 1,8 mm 1 m/s 680 mmHg 94%
    18:00 +24°C° 1,8 mm 1 m/s 679 mmHg 96%
    19:00 +23°C° 1,2 mm 1 m/s 680 mmHg 96%
    20:00 +22°C° 1,2 mm 1 m/s 680 mmHg 96%
    21:00 +20°C° 1,2 mm 0 m/s 680 mmHg 97%
    22:00 +19°C° 0,9 mm 0 m/s 680 mmHg 97%
    23:00 +19°C° 0,9 mm 0 m/s 680 mmHg 97%
    Mostrar mais